Regional Weather Roundup
Issued by NWS

Home | Current Version | Previous Version | Text Only | Print | Product List | Glossary Off
Versions: 1 2 3 4 5 6 7 8 9 10 11 12 13 14 15 16 17 18 19 20 21 22 23 24 25 26 27 28 29 30 31 32 33 34 35 36 37 38 39 40 41 42 43 44 45 46 47 48 49 50

000
ASUS43 KOAX 241502
RWRNE

WEATHER ROUNDUP FOR NEBRASKA
NATIONAL WEATHER SERVICE OMAHA NE
1000 AM CDT SUN SEP 24 2017

NOTES: SATELLITE DATA IS BEING USED TO AUGMENT CLOUD COVER ABOVE
       12000 FEET.
       "FAIR" INDICATES FEW OR NO CLOUDS BELOW 12,000 FEET WITH NO
       SIGNIFICANT WEATHER AND/OR OBSTRUCTIONS TO VISIBILITY.


NEZ001>004-019>022-054>056-241600-
NEBRASKA PANHANDLE

CITY           SKY/WX    TMP DP  RH WIND       PRES   REMARKS
SCOTTSBLUFF    CLOUDY    48  42  80 NE5       30.03R
ALLIANCE       CLOUDY    46  43  89 N14       29.99S
CHADRON        CLOUDY    47  43  86 N8        30.02S
GORDON         CLOUDY    45  44  94 N15       29.99R
KIMBALL        CLOUDY    44  43  98 N7        30.02S
SIDNEY         CLOUDY    46  44  93 N13       30.02R
$$

NEZ057>060-069>072-079>082-241600-
SOUTHWEST NEBRASKA

CITY           SKY/WX    TMP DP  RH WIND       PRES   REMARKS
NORTH PLATTE   CLOUDY    52  50  93 N10       29.96S
IMPERIAL       CLOUDY    50  47  89 N12       29.98R
LEXINGTON      RAIN      57  56  94 NW10      29.93R
MCCOOK         CLOUDY    53  52  96 N8        29.93S
OGALLALA       CLOUDY    52  48  84 N8        29.98R
$$

NEZ005>010-023>029-035>040-094-241600-
NORTH CENTRAL NEBRASKA

CITY           SKY/WX    TMP DP  RH WIND       PRES   REMARKS
VALENTINE      LGT RAIN  50  48  93 N13       29.91F
AINSWORTH      CLOUDY    51  51 100 NW6       29.95R
BROKEN BOW     LGT RAIN  53  53 100 NW9       29.94R
O`NEILL        LGT RAIN  53  53 100 NW9       29.91S
ORD            RAIN      56  53  90 NW7       29.89R FOG
THEDFORD       CLOUDY    51  49  95 N7        29.99R
$$

NEZ041-046>049-061>064-073>077-083>087-241600-
SOUTH CENTRAL NEBRASKA

CITY           SKY/WX    TMP DP  RH WIND       PRES   REMARKS
GRAND ISLAND   MOSUNNY   74  66  76 S12       29.89R
AURORA         PTSUNNY   77  65  67 S17       29.89S
HASTINGS       PTSUNNY   75  63  66 SW14G20   29.91R
HEBRON         MOSUNNY   79  64  61 S15G21    29.91S
HOLDREGE       RAIN      65  63  93 S12G18    29.92R
KEARNEY        LGT RAIN  66  64  93 S13       29.91R
YORK           PTSUNNY   75  64  69 S16       29.90R
$$

NEZ011>018-030>034-042>045-241600-
NORTHEAST NEBRASKA

CITY           SKY/WX    TMP DP  RH WIND       PRES   REMARKS
NORFOLK        PTSUNNY   77  65  66 S15G22    29.88R
ALBION         CLOUDY    74  66  77 S13G20    29.88S
BLAIR          MOSUNNY   79  65  64 S14G20    29.92F
COLUMBUS       MOSUNNY   78  65  63 S15       29.89R
FREMONT        MOSUNNY   78  64  61 S7        29.91S
TEKAMAH        MOSUNNY   78  66  66 S9        29.91S
WAYNE          MOSUNNY   75  67  76 S16G22    29.88S
$$

NEZ050>053-065>068-078-088>093-241600-
SOUTHEAST NEBRASKA

CITY           SKY/WX    TMP DP  RH WIND       PRES   REMARKS
LINCOLN        MOSUNNY   81  64  56 S15       29.91S
OMAHA EPPLEY   PTSUNNY   79  65  62 SE15      29.92S
BEATRICE       SUNNY     80  65  61 S15G22    29.93R
FALLS CITY     SUNNY     79  66  64 S8        29.95R
NEBRASKA CITY  MOSUNNY   77  68  74 S12       29.95R
PLATTSMOUTH    MOSUNNY   76  67  73 SE8       29.94S
$$

NEZ044-045-051>053-067-241600-
OMAHA AREA

CITY           SKY/WX    TMP DP  RH WIND       PRES   REMARKS
OMAHA EPPLEY   PTSUNNY   79  65  62 SE15      29.92S
BLAIR          MOSUNNY   79  65  64 S14G20    29.92F
FREMONT        MOSUNNY   78  64  61 S7        29.91S
MILLARD        MOSUNNY   81  67  62 S8        29.92S
OFFUTT AFB     MOSUNNY   77  66  68 SE13      29.92S
PLATTSMOUTH    MOSUNNY   76  67  73 SE8       29.94S
WAHOO          FAIR      79  64  59 S14       29.91S
$$




USA.gov is the U.S. government's official web portal to all federal, state and local government web resources and services.